Spirit of St Louis, MO

7:32 AM CST on December 10, 2019 (GMT -0600)
Spirit Of Saint Louis

Weather History for KSUS - November, 2019

Change the Weather History Date:

Friday, November 15, 2019

  Actual Average Record
Temperature  
Mean Temperature 34 °F -  
Max Temperature 48 °F 53 °F 71 °F (2001)
Min Temperature 19 °F 33 °F 17 °F (2014)
Degree Days  
Heating Degree Days 32    
Moisture  
Dew Point 23 °F    
Average Humidity 75    
Maximum Humidity 92    
Minimum Humidity 32    
Precipitation  
Precipitation 0.00 in - - ()
Sea Level Pressure  
Sea Level Pressure 30.41 in    
Wind  
Wind Speed 1 mph (WNW)    
Max Wind Speed 5 mph    
Max Gust Speed -    
Visibility 7 miles    
Events      
Averages and records for this station are not official NWS values.
T = Trace of Precipitation, MM = Missing Value Source: NWS Daily Summary

Daily Weather History Graph

Daily Weather History Graph

Search for Another Location

Airport or City:

Astronomy

Nov. 15, 2019 Rise Set
Actual Time 6:44 AM CST 4:49 PM CST
Civil Twilight 6:16 AM CST 5:17 PM CST
Nautical Twilight 5:44 AM CST 5:49 PM CST
Astronomical Twilight 5:12 AM CST 6:21 PM CST
Moon 7:26 PM CST (11/15) 9:40 AM CST (11/15)
Length of Visible Light 11h 01m
Length of Day
10h 04m
Waning Gibbous, 90% of the Moon is Illuminated
Nov 15
Waning Gibbous
Nov 19
Last Quarter
Nov 26
New
Dec 4
First Quarter
Dec 11
Full

Hourly Weather History & Observations

Time (CST) Temp. Windchill Dew Point Humidity Pressure Visibility Wind Dir Wind Speed Gust Speed Precip Events Conditions
12:54 AM 24.1 °F - 21.0 °F 88% 30.41 in 6.0 mi Calm Calm - N/A   Clear
1:54 AM 24.1 °F - 21.0 °F 88% 30.42 in 5.0 mi Calm Calm - N/A   Clear
2:54 AM 21.9 °F - 19.9 °F 92% 30.42 in 4.0 mi Calm Calm - N/A   Clear
3:54 AM 21.9 °F - 19.9 °F 92% 30.43 in 6.0 mi Calm Calm - N/A   Clear
4:02 AM 21.9 °F - 19.9 °F 92% 30.41 in 5.0 mi Calm Calm - N/A   Scattered Clouds
4:54 AM 21.0 °F - 18.0 °F 88% 30.45 in 6.0 mi Calm Calm - N/A   Clear
5:54 AM 19.9 °F 14.9 °F 18.0 °F 92% 30.45 in 3.0 mi WSW 3.5 mph - N/A   Clear
6:54 AM 19.9 °F - 18.0 °F 92% 30.45 in 3.0 mi Calm Calm - N/A   Clear
7:54 AM 24.1 °F - 21.9 °F 91% 30.46 in 3.0 mi Calm Calm - N/A   Clear
8:54 AM 28.9 °F - 26.1 °F 89% 30.47 in 4.0 mi Calm Calm - N/A   Clear
10:54 AM 39.9 °F 37.8 °F 28.0 °F 63% 30.45 in 5.0 mi West 3.5 mph - N/A   Haze
11:54 AM 43.0 °F - 27.0 °F 53% 30.43 in 6.0 mi Calm Calm - N/A   Haze
12:54 PM 46.9 °F - 23.0 °F 39% 30.41 in 6.0 mi North 4.6 mph - N/A   Haze
1:54 PM 48.9 °F - 21.9 °F 35% 30.39 in 6.0 mi WNW 3.5 mph - N/A   Haze
2:54 PM 48.9 °F - 19.9 °F 32% 30.38 in 10.0 mi Calm Calm - N/A   Clear
3:54 PM 46.9 °F - 23.0 °F 39% 30.38 in 10.0 mi East 4.6 mph - N/A   Clear
5:54 PM 35.1 °F - 25.0 °F 67% 30.38 in 10.0 mi Calm Calm - N/A   Clear
6:54 PM 34.0 °F - 27.0 °F 75% 30.39 in 10.0 mi Calm Calm - N/A   Clear
7:54 PM 30.9 °F - 26.1 °F 82% 30.39 in 10.0 mi Calm Calm - N/A   Clear
8:54 PM 30.0 °F - 26.1 °F 85% 30.39 in 10.0 mi Calm Calm - N/A   Clear
9:54 PM 28.9 °F - 25.0 °F 85% 30.39 in 10.0 mi Calm Calm - N/A   Clear
10:54 PM 28.0 °F - 24.1 °F 85% 30.38 in 10.0 mi Calm Calm - N/A   Clear
11:54 PM 27.0 °F - 23.0 °F 85% 30.38 in 10.0 mi Calm Calm - N/A   Clear